Weather History for KTRI - December, 2012

Change the Weather History Date:

Wednesday, December 26, 2012

  Actual Average Record
Temperature  
Mean Temperature 43 °F 36 °F  
Max Temperature 52 °F 46 °F 72 °F (1942)
Min Temperature 33 °F 26 °F 0 °F (1983)
Degree Days  
Heating Degree Days 22 29  
Month to date heating degree days 526 697  
Since 1 July heating degree days 1506 1583  
Cooling Degree Days 0 0  
Month to date cooling degree days 0 0  
Year to date cooling degree days 1191 981  
Moisture  
Dew Point 37 °F    
Average Humidity 78    
Maximum Humidity 92    
Minimum Humidity 63    
Precipitation  
Precipitation 0.56 in 0.10 in 1.06 in (1973)
Month to date precipitation 3.77 2.85  
Year to date precipitation 45.92 40.49  
Snow  
Snow T in 0.10 in - ()
Month to date snowfall 0.5 1.9  
Since 1 July snowfall 0.5 2.2  
Snow Depth 0.00 in    
Sea Level Pressure  
Sea Level Pressure 29.60 in    
Wind  
Wind Speed 13 mph (SW)    
Max Wind Speed 23 mph    
Max Gust Speed 32 mph    
Visibility 8 miles    
Events Rain , Snow    
T = Trace of Precipitation, MM = Missing Value Source: NWS Daily Summary

Daily Weather History Graph

Daily Weather History Graph

Search for Another Location

Airport or City:

Trip Planner

Search our weather history database for the weather conditions in past years. The results will help you decide how hot, cold, wet, or windy it might be!

Date:

Astronomy

Dec. 26, 2012 Rise Set
Actual Time 7:40 AM EST 5:20 PM EST
Civil Twilight 7:11 AM EST 5:49 PM EST
Nautical Twilight 6:38 AM EST 6:22 PM EST
Astronomical Twilight 6:07 AM EST 6:53 PM EST
Moon 4:12 PM EST (12/26) 6:03 AM EST (12/26)
Length of Visible Light 10h 38m
Length of Day
9h 40m
Waxing Gibbous, 97% of the Moon is Illuminated
Dec 26
Waxing Gibbous
Dec 28
Full
Jan 4
Last Quarter
Jan 11
New
Jan 18
First Quarter

Hourly Weather History & Observations

Time (EST) Temp. Windchill Dew Point Humidity Pressure Visibility Wind Dir Wind Speed Gust Speed Precip Events Conditions
12:53 AM 45.0 °F 41.2 °F 43.0 °F 93% 29.85 in 7.0 mi ENE 6.9 mph - 0.10 in Rain Light Rain
1:53 AM 46.0 °F 41.9 °F 42.1 °F 86% 29.79 in 10.0 mi East 8.1 mph - 0.01 in   Overcast
2:53 AM 46.0 °F 41.9 °F 42.1 °F 86% 29.75 in 10.0 mi ENE 8.1 mph - 0.00 in Rain Light Rain
3:53 AM 46.9 °F - 42.1 °F 83% 29.70 in 10.0 mi East 10.4 mph 19.6 mph 0.02 in Rain Light Rain
4:53 AM 46.9 °F - 39.9 °F 77% 29.62 in 10.0 mi East 13.8 mph 21.9 mph 0.01 in Rain Light Rain
5:53 AM 48.0 °F - 39.9 °F 74% 29.53 in 10.0 mi East 12.7 mph 20.7 mph 0.02 in   Overcast
6:53 AM 46.0 °F 40.2 °F 39.9 °F 79% 29.48 in 10.0 mi ENE 12.7 mph 23.0 mph 0.03 in Rain Light Rain
7:53 AM 45.0 °F 43.5 °F 41.0 °F 86% 29.53 in 5.0 mi North 3.5 mph - 0.02 in Rain Rain
8:53 AM 46.9 °F - 39.0 °F 74% 29.49 in 10.0 mi ESE 12.7 mph 29.9 mph 0.05 in   Overcast
9:36 AM 46.4 °F 39.0 °F 37.4 °F 71% 29.50 in 10.0 mi East 19.6 mph 28.8 mph N/A   Scattered Clouds
9:53 AM 48.0 °F - 37.0 °F 66% 29.49 in 10.0 mi East 13.8 mph 24.2 mph N/A   Scattered Clouds
10:53 AM 51.1 °F - 39.0 °F 63% 29.45 in 10.0 mi East 9.2 mph - N/A   Scattered Clouds
11:53 AM 50.0 °F - 39.0 °F 66% 29.41 in 10.0 mi ESE 12.7 mph 20.7 mph N/A   Scattered Clouds
12:30 PM 48.2 °F - 42.8 °F 82% 29.46 in 2.5 mi SW 4.6 mph - 0.05 in Rain Rain
12:53 PM 46.9 °F - 43.0 °F 86% 29.43 in 2.5 mi SSW 10.4 mph - 0.09 in Rain Light Rain
1:53 PM 46.0 °F 39.9 °F 42.1 °F 86% 29.44 in 2.5 mi West 13.8 mph 27.6 mph 0.08 in Rain Light Rain
2:01 PM 44.6 °F 38.1 °F 41.0 °F 87% 29.47 in 6.0 mi WSW 13.8 mph 26.5 mph 0.01 in Rain Light Rain
2:53 PM 43.0 °F 35.7 °F 39.9 °F 89% 29.47 in 10.0 mi SW 15.0 mph 23.0 mph 0.07 in Rain Light Rain
3:26 PM 42.8 °F 34.3 °F 39.2 °F 87% 29.52 in 9.0 mi WSW 19.6 mph 25.3 mph 0.02 in Rain Light Rain
3:42 PM 42.8 °F 34.8 °F 37.4 °F 81% 29.53 in 10.0 mi WSW 17.3 mph - 0.02 in Rain Light Rain
3:53 PM 41.0 °F 31.6 °F 37.0 °F 86% 29.51 in 10.0 mi WSW 20.7 mph - 0.02 in Rain Light Rain
4:53 PM 39.9 °F 32.5 °F 36.0 °F 86% 29.54 in 10.0 mi SW 12.7 mph 25.3 mph 0.02 in Rain Light Rain
5:41 PM 37.4 °F 27.2 °F 35.6 °F 93% 29.59 in 10.0 mi SW 19.6 mph 25.3 mph 0.02 in Rain Light Rain
5:53 PM 37.9 °F 27.6 °F 34.0 °F 86% 29.58 in 10.0 mi SW 20.7 mph 28.8 mph 0.02 in Rain Light Rain
6:35 PM 35.6 °F 26.2 °F 33.8 °F 93% 29.65 in 10.0 mi WSW 15.0 mph 28.8 mph 0.02 in Rain Light Rain
6:53 PM 36.0 °F 25.0 °F 32.0 °F 86% 29.65 in 10.0 mi WSW 20.7 mph - 0.02 in Rain Light Rain
7:35 PM 33.8 °F 23.2 °F 30.2 °F 87% 29.70 in 2.0 mi SW 17.3 mph 25.3 mph 0.00 in Snow Light Snow
7:53 PM 34.0 °F 24.6 °F 30.9 °F 89% 29.70 in 2.0 mi WSW 13.8 mph - 0.00 in Snow Light Snow
7:58 PM 33.8 °F 24.3 °F 30.2 °F 87% 29.72 in 6.0 mi WSW 13.8 mph 19.6 mph 0.00 in Snow Light Snow
8:06 PM 33.8 °F 24.8 °F 30.2 °F 87% 29.73 in 7.0 mi WSW 12.7 mph - 0.00 in Snow Light Snow
8:13 PM 33.8 °F 24.3 °F 30.2 °F 87% 29.73 in 7.0 mi WSW 13.8 mph - 0.00 in Snow Light Snow
8:53 PM 34.0 °F 25.5 °F 30.0 °F 85% 29.74 in 5.0 mi WSW 11.5 mph 24.2 mph 0.00 in Snow Light Snow
9:53 PM 33.1 °F 20.9 °F 28.0 °F 82% 29.77 in 10.0 mi WSW 21.9 mph 28.8 mph 0.00 in   Overcast
10:53 PM 33.1 °F 21.9 °F 28.0 °F 82% 29.81 in 10.0 mi West 18.4 mph 31.1 mph 0.00 in Snow Light Snow
11:53 PM 33.1 °F 23.4 °F 28.0 °F 82% 29.83 in 10.0 mi WSW 13.8 mph - 0.00 in   Overcast